Vorticity
11 11 12 18 25 28 28 26 24 22 18 13 8 4 4 6 6 6 6 4 3 3 -1 -6 -7 -9 -9 0 7 7 5 5 8 10 3 -1 1 4 6 4 2 4 1 4 6 3 25 43 18 -0 5 2 -0 3 1 2 4 3 3 3 3 5 4 3 4 4 3 2 2 3 4 4 4 4 5 5 4 3 2 2 2 3 4 4 4
9 9 10 10 11 14 18 21 23 26 28 25 20 15 9 5 4 4 5 6 5 3 -0 -4 -3 1 4 4 4 5 5 2 2 6 4 3 3 1 5 6 4 5 2 3 7 1 17 43 27 0 2 4 0 2 3 3 3 3 3 3 3 4 4 4 4 5 5 3 1 2 3 3 4 5 5 5 6 5 5 4 4 4 5 5 5
8 8 9 9 10 10 9 11 11 11 17 22 24 24 22 18 14 8 4 4 6 5 4 -1 -4 1 7 7 5 5 4 3 3 5 6 5 3 1 3 4 3 5 4 3 6 2 7 30 31 8 -1 3 3 3 3 3 4 4 3 2 3 3 3 4 4 4 6 5 3 2 3 4 4 5 5 6 7 7 7 6 6 5 5 5 5
7 7 9 8 9 10 9 10 10 8 8 10 14 18 20 22 23 23 18 12 7 4 5 4 -2 -5 -1 5 9 5 2 6 5 4 7 5 3 2 2 2 -0 1 6 4 4 5 3 11 22 16 6 4 2 2 4 3 4 5 4 3 3 3 3 2 3 4 5 6 6 3 2 3 5 6 5 5 6 7 8 8 7 7 7 7 6
5 5 8 10 11 10 9 8 9 11 10 8 9 9 10 13 15 19 24 24 22 15 9 6 2 -0 -0 1 4 5 6 8 4 4 7 5 4 3 1 4 4 2 6 6 3 5 3 3 10 13 13 14 8 2 2 4 4 4 4 5 3 3 3 1 1 3 4 5 7 7 4 2 4 6 5 4 4 7 8 8 8 9 9 8 8
7 8 9 11 13 12 11 9 8 9 11 11 10 8 8 9 8 9 13 16 22 24 22 19 14 7 2 -2 -1 3 7 9 9 8 8 6 6 4 2 5 4 2 4 4 3 4 4 6 7 5 7 16 18 10 2 2 4 3 3 6 6 3 3 2 1 1 3 4 6 7 6 4 3 3 3 4 5 7 7 7 8 9 9 8 8
9 12 13 13 14 13 11 9 7 7 9 11 12 11 9 8 8 8 7 7 10 15 18 22 24 23 18 9 3 2 2 5 10 9 7 6 6 6 7 6 4 3 3 1 1 4 3 4 6 4 2 6 16 20 13 4 4 4 1 3 6 5 3 3 1 1 2 3 5 6 6 5 4 3 2 3 6 6 5 5 4 4 6 7 7
14 13 13 12 12 12 11 11 10 10 12 13 13 13 13 12 11 9 8 6 6 7 9 12 15 20 24 22 19 15 8 2 3 7 7 6 6 5 3 3 6 7 3 0 2 4 4 4 5 8 8 4 6 16 20 11 4 6 4 1 3 6 5 4 3 2 2 2 4 5 6 6 5 4 3 2 3 5 4 2 1 1 2 3 3
14 12 12 12 12 12 13 13 14 13 13 14 14 14 15 15 15 14 13 11 9 7 6 7 7 9 13 17 19 23 24 17 10 8 9 8 7 6 2 2 6 7 3 3 3 2 3 6 6 5 8 7 1 5 16 15 7 5 5 2 2 3 4 5 5 3 3 3 5 6 6 6 5 5 6 4 2 2 2 -0 -1 0 2 2 1
14 13 13 12 11 12 12 11 12 11 11 12 12 12 12 13 15 17 16 15 15 12 10 8 7 6 7 8 9 11 19 25 22 15 12 9 5 4 7 8 8 8 6 3 3 3 3 3 5 5 5 9 8 4 6 12 12 8 5 4 3 2 2 3 5 6 4 2 5 6 5 5 5 5 5 5 4 2 1 1 0 2 3 2 2
14 14 13 12 11 11 10 9 10 9 9 11 13 14 13 12 12 13 15 17 17 17 17 15 11 8 7 7 8 6 6 14 22 22 18 15 8 2 3 5 6 10 11 5 2 3 3 2 5 5 4 8 11 8 2 4 10 10 7 7 3 1 2 1 2 7 7 4 4 5 5 5 4 5 4 3 4 4 3 3 2 1 2 3 2
11 8 7 6 6 5 5 6 8 10 11 11 14 17 17 16 16 13 12 12 13 15 18 19 18 17 12 7 6 7 5 5 11 16 20 22 20 11 4 1 4 9 11 11 7 2 3 6 4 3 5 6 6 9 7 4 7 7 5 9 9 3 2 2 2 3 4 5 5 4 5 5 5 5 5 3 2 3 3 4 4 2 2 3 2
5 4 4 5 5 7 8 9 11 14 15 15 17 19 18 17 18 19 17 13 11 12 13 15 18 19 19 15 9 6 7 5 4 11 17 17 18 22 17 5 2 6 9 13 13 6 3 5 3 2 7 7 5 8 8 3 7 9 3 6 13 9 2 -0 1 2 1 2 5 5 3 4 6 6 7 6 4 4 3 2 3 2 1 3 3
5 6 5 6 9 9 9 9 12 16 18 14 12 14 17 16 13 15 18 18 16 14 13 12 14 16 21 23 17 10 8 7 6 8 9 4 6 23 33 21 4 1 6 11 14 11 5 3 5 6 6 6 5 6 5 3 8 10 5 4 9 11 9 4 -2 -2 -0 -1 1 5 3 2 3 4 6 8 5 3 4 2 3 4 2 3 4
6 6 6 11 16 18 20 21 20 23 25 22 19 20 25 26 21 18 18 18 18 18 17 17 14 13 17 22 24 19 12 9 7 4 5 3 -0 9 29 38 22 3 0 6 12 15 10 5 5 6 4 5 5 5 6 6 8 8 6 7 8 10 18 21 8 -2 -2 -0 -1 1 2 2 2 2 3 7 7 4 4 3 4 5 2 1 3
10 15 21 23 19 20 27 28 23 24 31 35 33 31 30 29 26 24 22 20 20 18 15 18 19 17 15 17 23 23 18 14 11 6 4 5 -0 -8 3 29 39 23 7 3 7 15 16 8 5 5 5 5 6 7 7 5 4 6 6 8 10 11 18 27 20 3 -3 1 2 1 1 1 2 3 2 3 5 4 3 4 4 4 4 5 6
21 26 27 20 10 9 19 24 25 29 35 36 32 28 30 31 31 32 30 27 26 21 14 14 20 20 17 16 19 23 23 19 15 12 6 6 10 3 -7 6 30 34 23 13 9 12 15 12 8 5 5 7 6 5 6 4 3 4 4 6 12 14 16 22 20 6 -2 0 2 1 2 2 1 3 3 3 5 3 1 3 2 1 3 5 5
22 20 19 18 12 10 15 23 27 28 26 25 26 29 33 36 36 38 40 36 30 26 22 21 23 22 18 16 19 21 21 19 15 14 9 6 13 13 -1 -3 11 24 27 23 16 13 13 13 11 6 5 7 7 4 4 4 4 4 5 8 11 14 20 22 17 7 -1 -1 3 2 1 2 2 2 2 1 2 4 3 3 3 2 2 2 2
19 20 19 15 10 11 20 25 21 19 20 20 22 28 37 43 42 38 36 33 26 23 22 19 20 23 20 18 22 23 19 15 10 8 6 4 6 8 2 -1 6 16 23 21 17 18 18 15 14 10 6 6 6 6 6 3 4 5 7 9 7 7 17 23 19 15 6 -4 -1 4 1 1 3 2 3 1 -2 2 6 4 3 4 4 3 4
16 22 20 14 10 15 29 31 17 12 17 18 18 19 21 27 33 31 28 27 24 22 20 14 13 18 19 18 23 25 22 19 15 11 7 4 6 9 5 2 5 14 23 21 15 16 19 19 17 12 9 7 5 7 7 4 4 4 4 8 7 2 11 19 14 15 16 4 -2 2 2 2 5 3 3 4 -2 -2 4 5 3 4 5 6 5
9 14 14 15 18 19 23 27 24 19 16 16 19 20 15 12 14 16 22 30 26 16 15 16 15 18 22 19 19 25 27 23 19 16 10 4 7 12 13 11 7 8 18 22 16 13 14 15 16 16 13 10 6 7 10 7 5 4 1 5 10 6 13 23 12 7 17 16 8 8 5 3 7 6 5 8 4 0 4 5 3 2 0 2 3
4 7 7 9 14 15 14 16 22 23 22 23 21 18 18 16 10 8 13 21 20 9 11 22 23 23 24 16 12 22 30 24 16 12 8 5 4 4 9 18 16 12 22 28 17 11 13 11 10 14 18 15 7 5 10 9 5 6 4 3 7 4 4 15 15 10 14 11 4 11 16 12 10 6 3 5 2 -2 3 5 2 1 0 -1 1
7 6 6 5 6 10 10 13 15 10 11 24 26 21 24 24 20 22 21 17 17 18 23 30 28 25 27 20 12 20 27 23 14 7 6 9 9 2 2 13 14 8 20 34 22 9 11 12 8 8 13 19 14 3 6 10 5 5 7 4 4 2 -2 4 11 12 12 3 -5 3 13 16 18 12 9 15 9 -5 -1 5 -0 -2 2 1 -1
9 6 6 6 7 9 8 13 18 8 3 11 11 9 17 19 18 25 25 20 25 29 29 30 26 19 20 21 20 22 24 20 12 5 4 9 13 9 3 8 11 -2 -2 24 35 21 10 8 9 7 6 15 21 9 2 6 6 4 6 5 6 5 1 2 6 7 8 3 -0 4 4 8 23 24 19 31 29 2 -8 4 6 -0 1 4 2
7 4 5 6 7 10 9 9 13 13 11 12 5 0 7 9 6 13 14 12 21 28 25 27 31 28 24 25 25 22 21 19 12 6 6 7 11 13 3 1 16 11 -6 4 27 31 23 17 15 12 4 6 20 23 12 7 7 6 4 2 5 9 7 4 3 6 8 4 2 7 3 2 16 18 12 28 42 22 -3 -4 4 6 2 2 4
7 3 4 3 1 6 10 10 11 12 11 12 12 11 13 9 7 12 12 8 13 21 23 24 28 29 26 25 25 20 18 19 13 7 10 12 13 16 10 5 15 16 -2 -6 4 13 20 24 24 23 13 3 7 19 23 18 12 10 10 6 2 3 5 6 5 5 8 8 5 7 8 6 9 13 18 28 31 22 8 -5 -4 8 10 7 9
11 6 5 5 3 4 6 7 9 12 11 11 12 13 14 14 11 11 12 9 10 14 18 20 20 19 18 18 20 18 15 17 15 9 10 13 13 20 25 20 15 10 7 10 12 7 6 12 20 25 25 18 7 5 15 19 11 7 12 13 10 7 4 6 11 12 12 12 9 5 5 7 7 16 32 29 2 -11 -1 -1 -6 4 11 8 10
11 10 8 6 4 3 5 6 8 11 12 13 11 9 10 12 13 12 12 13 12 10 11 13 13 13 14 15 17 17 14 15 17 14 13 15 15 19 24 19 12 10 9 10 15 16 9 7 10 11 15 24 20 9 11 16 10 5 5 4 6 11 8 2 5 9 9 9 10 7 3 8 18 26 33 30 10 -1 6 4 -6 -3 3 2 5
11 11 11 10 8 6 6 7 7 9 11 11 12 11 9 8 10 12 11 11 12 11 11 11 10 9 10 9 11 15 17 19 19 16 15 15 12 10 11 11 15 20 14 3 7 17 14 9 9 4 6 19 22 14 14 16 10 8 9 4 1 3 5 4 4 6 9 10 12 12 5 4 18 25 17 9 7 9 11 10 6 6 8 10 10
13 12 11 11 12 11 10 7 7 8 10 10 12 12 11 9 9 10 10 11 12 12 11 12 12 12 12 11 10 10 13 18 22 21 16 14 12 7 2 4 13 22 19 10 9 9 9 17 23 14 10 21 26 20 18 16 9 6 7 9 9 4 0 2 3 6 9 8 7 13 15 11 17 26 21 10 6 6 7 12 14 10 8 14 20
16 16 15 14 13 13 12 11 11 12 11 11 11 9 9 10 8 6 7 9 12 13 13 11 11 13 15 17 16 13 11 12 18 24 22 15 10 7 6 8 13 17 20 23 17 2 0 21 35 24 12 17 26 29 30 25 18 12 8 7 10 8 3 0 -1 -3 -2 -4 -8 -5 1 3 9 18 21 16 11 8 9 13 17 14 8 10 14
17 20 20 19 17 15 13 12 12 12 12 13 14 13 13 14 12 8 7 8 9 10 10 8 9 14 19 21 19 18 19 17 15 19 24 21 13 9 12 17 13 4 8 21 21 3 -5 13 33 32 21 15 15 21 29 30 22 17 15 14 12 10 7 6 6 5 4 2 -1 -8 -13 -14 -9 -0 6 7 4 4 6 9 16 18 10 6 11
20 21 22 21 20 18 17 15 13 13 13 13 14 14 14 14 13 12 12 12 12 12 11 9 9 13 22 29 25 19 20 24 24 21 20 20 20 16 16 16 8 -2 1 12 12 3 -3 3 13 21 24 22 16 13 22 31 27 16 13 15 16 14 9 4 6 9 8 4 5 5 2 -1 -4 -4 -1 1 1 2 2 4 10 12 7 6 11
18 20 21 23 22 21 19 17 14 13 12 12 12 11 11 11 12 12 13 12 12 12 12 10 7 9 20 29 27 20 19 23 28 29 23 18 17 16 13 11 7 5 11 14 10 7 2 -6 -5 9 19 18 13 14 22 30 31 23 16 12 12 16 15 9 7 9 7 3 3 5 4 4 4 3 2 1 1 2 1 2 5 6 5 5 6
6 10 13 16 19 22 22 22 20 17 14 12 11 10 10 9 9 10 11 11 12 12 12 10 8 9 16 23 21 19 22 26 30 33 30 22 17 14 11 11 10 11 15 16 12 12 8 -5 -8 6 16 10 5 10 19 24 25 26 23 16 10 11 14 14 13 11 8 7 8 7 5 3 3 4 4 3 4 4 3 3 3 2 2 2 -1
2 2 4 6 7 10 13 17 20 21 21 20 17 15 13 12 10 9 9 9 11 12 13 14 12 8 12 20 19 12 12 24 37 41 34 26 21 14 9 9 10 8 10 13 12 11 11 5 -1 1 10 16 17 14 15 20 23 22 22 21 17 13 13 15 16 15 13 10 8 6 6 5 2 0 2 4 4 3 2 3 3 2 3 3 -0
7 5 5 5 4 3 3 5 8 11 14 17 19 20 20 18 16 15 12 10 10 12 14 17 18 13 10 16 21 17 9 10 22 31 29 25 24 20 14 11 11 9 8 11 12 10 10 10 7 1 1 6 8 4 4 11 15 16 19 22 20 17 15 15 15 16 16 15 12 9 8 7 4 2 1 2 4 4 3 2 2 2 2 3 3
7 7 7 7 7 6 5 5 4 4 5 6 9 13 17 19 21 22 20 17 14 14 15 16 18 18 15 12 15 19 18 12 11 14 14 14 18 21 20 17 15 12 10 9 9 9 12 14 15 14 10 3 -2 -1 6 10 10 11 16 19 17 15 15 13 13 14 14 14 13 11 9 8 6 4 4 3 3 3 4 3 3 4 3 3 4
6 6 7 7 7 8 8 7 6 6 5 4 4 5 6 10 13 17 21 22 20 17 17 16 15 16 18 16 12 12 15 17 15 12 10 8 8 13 17 19 17 14 14 14 11 7 8 11 15 19 21 16 8 6 11 13 12 12 14 14 14 15 15 14 13 13 14 14 14 13 10 9 7 5 6 7 6 5 5 4 4 4 3 3 4
6 6 6 6 7 8 9 8 8 8 7 7 7 6 5 5 6 7 10 15 18 19 19 20 19 16 15 16 15 13 12 14 14 13 15 17 16 14 17 21 22 18 15 18 18 14 10 8 9 13 18 19 15 11 9 8 10 12 14 15 15 15 15 15 16 16 13 13 15 15 13 12 11 8 6 7 7 7 7 6 6 6 6 5 4
6 6 7 7 6 6 6 7 7 8 9 9 8 8 7 6 6 7 6 6 9 12 14 16 20 21 19 17 15 14 13 13 12 12 14 17 18 19 20 21 23 23 19 17 20 20 17 13 10 9 12 16 16 13 12 9 7 6 8 10 13 14 13 12 13 16 18 17 16 16 15 13 12 11 10 8 7 7 6 6 5 6 6 5 5
8 7 7 7 7 7 6 6 6 5 7 8 8 8 9 9 7 7 7 6 5 7 8 9 11 15 19 21 20 17 14 12 10 10 12 12 13 16 20 20 18 15 12 13 18 20 21 22 20 16 15 16 15 12 12 13 11 9 9 9 8 9 13 14 12 12 16 18 17 18 18 17 15 14 12 11 10 8 8 8 8 8 8 7 7
9 9 8 8 9 8 7 8 8 7 6 6 7 6 7 9 9 8 8 8 7 6 6 6 6 7 9 13 18 20 21 19 14 11 12 13 14 15 18 21 22 15 8 11 20 24 25 27 24 17 13 13 13 12 12 12 10 9 14 18 14 5 3 9 10 7 8 13 15 16 16 17 17 17 16 16 16 14 11 10 10 10 10 8 6
11 11 11 10 9 9 9 8 8 8 7 7 7 7 7 7 8 8 8 9 9 9 8 7 6 6 5 5 7 10 15 19 20 18 14 14 16 17 16 18 22 22 18 19 25 28 26 23 19 15 14 13 10 7 7 11 9 2 -1 10 21 21 13 10 11 9 6 6 8 11 14 15 16 17 17 16 17 20 22 19 15 13 13 15 17
14 13 12 12 11 10 10 9 8 8 9 8 7 8 9 8 8 8 8 8 9 9 10 9 9 8 7 6 5 5 5 7 10 14 15 14 16 19 20 19 19 20 20 20 22 23 22 17 15 19 27 30 26 15 6 7 11 6 -5 -7 6 17 17 15 17 19 18 12 6 4 6 9 11 14 16 16 16 17 17 15 15 16 18 18 18
16 15 15 15 14 12 11 11 10 9 9 9 8 8 9 9 9 9 9 8 8 8 8 9 10 10 9 9 8 7 6 5 4 5 7 8 8 10 13 17 18 19 20 21 22 21 21 18 14 14 21 31 37 35 26 19 19 19 12 3 1 3 5 6 9 14 20 23 19 11 7 7 7 7 9 11 12 10 6 3 5 12 18 17 10
13 14 14 14 15 15 14 14 13 12 11 10 10 10 9 9 9 10 10 9 9 9 9 8 9 9 10 10 10 9 9 9 8 6 6 7 7 6 6 7 10 13 15 17 20 20 21 23 21 17 15 17 23 29 32 31 28 24 19 15 13 12 9 6 4 4 8 16 21 19 14 12 12 11 9 8 10 11 9 4 -2 -3 4 12 12
9 10 10 10 11 12 12 12 13 13 13 12 12 11 11 11 10 10 11 10 10 11 11 11 11 11 10 10 11 11 11 11 10 10 8 7 7 7 7 5 6 8 9 11 13 15 15 17 20 21 21 19 18 19 22 25 25 23 19 16 15 15 13 9 5 2 1 5 13 17 17 15 13 13 12 10 9 10 13 14 10 2 -2 1 5
10 9 9 9 9 9 10 10 11 10 11 11 12 11 11 11 11 11 12 12 12 12 12 12 12 12 12 11 11 11 12 12 12 12 12 11 9 9 9 7 6 6 6 7 9 11 12 12 12 13 15 18 19 20 21 22 23 25 25 24 22 21 20 19 18 16 14 11 10 12 15 16 15 14 14 12 11 7 5 8 14 17 14 8 4
12 11 11 11 10 10 10 10 10 11 11 11 11 11 11 11 11 10 10 10 11 11 11 12 12 11 11 11 11 10 9 10 10 9 10 11 10 10 10 9 8 7 6 5 4 6 8 10 11 11 11 11 11 13 15 17 19 21 24 26 27 26 24 24 23 24 26 26 22 17 14 13 13 13 12 11 13 13 9 4 3 8 17 23 20
10 11 11 10 10 11 10 10 10 10 10 10 11 11 11 11 11 11 11 11 11 12 11 11 12 13 12 11 11 11 10 10 10 11 11 11 12 13 13 13 13 13 12 11 9 7 5 6 8 10 11 11 11 10 10 10 11 12 14 16 20 23 24 25 23 21 21 24 26 27 26 23 20 18 13 8 8 12 15 14 7 -2 1 18 32
Height
5693 5695 5696 5698 5700 5702 5704 5707 5709 5711 5714 5717 5720 5723 5725 5727 5731 5734 5737 5740 5744 5747 5750 5751 5753 5754 5757 5760 5764 5767 5770 5773 5776 5778 5781 5783 5786 5789 5790 5791 5793 5796 5798 5800 5802 5804 5805 5807 5809 5812 5813 5816 5819 5821 5823 5824 5825 5827 5828 5829 5831 5832 5833 5834 5836 5837 5838 5838 5839 5840 5840 5840 5840 5840 5840 5841 5841 5841 5841 5841 5841 5841 5841 5841 5841
5690 5691 5693 5694 5695 5697 5698 5701 5703 5705 5707 5710 5713 5715 5717 5720 5723 5726 5729 5734 5737 5740 5744 5746 5748 5749 5751 5754 5758 5761 5764 5767 5770 5773 5776 5779 5782 5784 5786 5787 5789 5792 5794 5795 5798 5800 5801 5803 5806 5808 5810 5812 5815 5817 5819 5821 5822 5824 5825 5826 5828 5829 5830 5831 5833 5835 5836 5836 5837 5838 5839 5839 5838 5839 5839 5839 5840 5840 5840 5840 5840 5840 5840 5839 5839
5686 5687 5689 5690 5691 5692 5694 5695 5697 5699 5701 5704 5706 5708 5710 5712 5715 5718 5722 5726 5729 5733 5736 5739 5742 5744 5746 5748 5752 5755 5758 5761 5764 5767 5770 5774 5777 5779 5782 5783 5785 5787 5789 5791 5793 5795 5798 5800 5802 5805 5807 5809 5811 5814 5816 5817 5819 5820 5822 5823 5825 5826 5827 5828 5830 5832 5833 5834 5835 5836 5837 5837 5837 5837 5837 5838 5838 5839 5839 5839 5839 5839 5838 5838 5838
5682 5683 5684 5686 5687 5688 5689 5690 5692 5694 5696 5698 5700 5701 5703 5705 5707 5710 5714 5717 5721 5725 5728 5731 5734 5737 5739 5742 5745 5748 5752 5755 5757 5760 5764 5768 5771 5774 5776 5778 5781 5783 5785 5787 5789 5791 5793 5796 5799 5802 5804 5806 5808 5810 5812 5814 5816 5817 5819 5820 5821 5823 5824 5825 5827 5828 5830 5832 5833 5834 5835 5835 5835 5836 5836 5836 5836 5837 5837 5837 5837 5837 5837 5836 5836
5677 5678 5679 5680 5682 5683 5684 5685 5686 5688 5689 5691 5693 5695 5697 5699 5701 5703 5706 5709 5712 5716 5719 5723 5726 5729 5732 5735 5738 5741 5745 5749 5751 5754 5758 5762 5765 5768 5771 5773 5776 5778 5781 5783 5784 5787 5789 5792 5795 5797 5799 5802 5804 5806 5809 5811 5813 5814 5815 5817 5818 5819 5821 5822 5823 5824 5826 5829 5830 5831 5833 5833 5833 5834 5834 5834 5834 5835 5835 5836 5835 5835 5835 5835 5834
5671 5672 5673 5675 5676 5677 5679 5680 5682 5683 5683 5685 5686 5688 5690 5692 5694 5696 5699 5701 5704 5707 5711 5714 5718 5722 5725 5727 5730 5734 5738 5742 5745 5748 5751 5755 5759 5762 5764 5767 5770 5773 5776 5778 5780 5782 5784 5787 5790 5791 5794 5796 5800 5803 5805 5807 5809 5811 5812 5814 5814 5815 5817 5819 5820 5821 5822 5825 5827 5828 5829 5830 5831 5832 5832 5832 5832 5833 5834 5834 5834 5833 5833 5833 5833
5666 5667 5668 5669 5670 5671 5672 5674 5675 5677 5678 5679 5680 5681 5683 5685 5687 5689 5691 5694 5697 5699 5703 5706 5710 5714 5717 5719 5723 5727 5731 5734 5737 5741 5744 5748 5752 5755 5758 5761 5764 5767 5770 5772 5775 5777 5779 5782 5784 5786 5788 5791 5795 5798 5800 5803 5805 5807 5808 5810 5810 5811 5812 5814 5816 5817 5818 5820 5823 5824 5826 5827 5828 5829 5829 5830 5830 5831 5831 5832 5832 5831 5831 5831 5831
5661 5662 5663 5664 5665 5665 5666 5667 5668 5669 5670 5672 5673 5675 5676 5677 5679 5681 5683 5686 5689 5692 5695 5698 5702 5705 5709 5712 5715 5719 5723 5726 5730 5734 5737 5741 5745 5748 5751 5755 5758 5761 5764 5766 5769 5772 5774 5777 5779 5782 5784 5788 5791 5794 5797 5799 5801 5803 5804 5805 5806 5807 5808 5810 5812 5813 5814 5816 5818 5820 5822 5823 5825 5826 5826 5827 5828 5828 5828 5829 5829 5829 5829 5829 5829
5657 5657 5658 5658 5659 5660 5661 5661 5662 5662 5663 5663 5665 5667 5668 5670 5671 5672 5675 5678 5681 5684 5687 5690 5693 5697 5701 5704 5707 5711 5715 5718 5722 5726 5729 5733 5738 5742 5745 5748 5752 5754 5757 5760 5763 5766 5768 5771 5774 5777 5780 5783 5786 5789 5792 5795 5797 5800 5801 5802 5802 5803 5804 5805 5807 5808 5810 5812 5813 5815 5818 5820 5821 5823 5824 5825 5825 5825 5825 5826 5827 5826 5826 5827 5826
5652 5652 5652 5652 5653 5653 5654 5655 5655 5656 5656 5656 5657 5657 5659 5661 5663 5664 5667 5670 5672 5675 5678 5680 5684 5688 5692 5696 5700 5703 5707 5711 5714 5717 5721 5725 5730 5734 5738 5742 5745 5748 5751 5754 5756 5759 5763 5767 5769 5771 5774 5778 5781 5783 5786 5788 5792 5795 5798 5799 5799 5799 5800 5801 5802 5804 5806 5807 5809 5810 5813 5816 5817 5819 5820 5820 5820 5821 5822 5823 5823 5823 5823 5824 5824
5648 5648 5647 5647 5647 5647 5647 5647 5648 5648 5649 5649 5649 5649 5649 5651 5654 5656 5658 5660 5663 5666 5668 5671 5675 5678 5682 5687 5691 5695 5700 5704 5706 5709 5712 5715 5720 5727 5731 5734 5737 5741 5744 5747 5750 5753 5757 5761 5762 5765 5768 5772 5776 5779 5780 5781 5783 5787 5791 5793 5795 5796 5796 5797 5798 5800 5801 5803 5805 5806 5808 5811 5813 5814 5816 5816 5817 5818 5818 5818 5819 5820 5820 5820 5821
5643 5643 5643 5642 5641 5641 5640 5640 5640 5640 5641 5641 5641 5641 5641 5642 5644 5647 5650 5652 5654 5656 5659 5662 5666 5669 5672 5677 5682 5686 5691 5696 5699 5702 5705 5708 5711 5717 5723 5726 5730 5735 5737 5739 5744 5747 5750 5754 5756 5759 5762 5766 5769 5772 5773 5775 5776 5778 5782 5785 5789 5791 5792 5793 5794 5794 5795 5797 5800 5801 5803 5807 5809 5810 5811 5812 5813 5813 5813 5814 5815 5816 5816 5816 5817
5639 5639 5638 5637 5636 5635 5635 5634 5633 5632 5632 5632 5632 5632 5633 5634 5635 5638 5641 5644 5645 5647 5651 5654 5658 5661 5664 5669 5674 5678 5683 5689 5693 5697 5701 5703 5704 5708 5713 5718 5723 5727 5729 5732 5737 5740 5744 5747 5750 5753 5756 5759 5762 5764 5766 5768 5770 5771 5774 5776 5780 5784 5787 5789 5790 5790 5790 5792 5794 5797 5800 5802 5804 5806 5807 5808 5808 5807 5808 5810 5811 5811 5812 5812 5812
5635 5634 5633 5632 5631 5629 5628 5627 5626 5625 5624 5624 5624 5624 5625 5626 5627 5629 5632 5635 5636 5639 5644 5647 5650 5653 5656 5662 5666 5670 5675 5681 5686 5690 5694 5696 5699 5701 5705 5710 5714 5718 5721 5725 5730 5733 5737 5740 5743 5747 5750 5753 5755 5757 5759 5763 5764 5765 5768 5770 5772 5776 5780 5784 5785 5785 5785 5787 5789 5792 5796 5797 5798 5801 5802 5801 5802 5803 5803 5804 5805 5805 5806 5807 5807
5630 5629 5628 5627 5625 5623 5622 5620 5619 5618 5616 5616 5616 5616 5616 5617 5618 5619 5623 5626 5629 5633 5636 5639 5643 5646 5650 5655 5658 5662 5668 5673 5676 5681 5685 5689 5692 5694 5696 5701 5706 5709 5713 5718 5722 5726 5730 5733 5736 5739 5743 5746 5749 5750 5753 5756 5757 5759 5763 5766 5768 5770 5773 5776 5780 5780 5781 5782 5784 5786 5790 5791 5791 5793 5794 5796 5797 5798 5798 5798 5798 5799 5800 5802 5803
5627 5625 5624 5622 5621 5619 5616 5614 5612 5610 5608 5607 5607 5607 5607 5607 5609 5610 5613 5617 5622 5625 5628 5632 5636 5639 5642 5647 5651 5655 5661 5666 5669 5673 5677 5680 5683 5685 5687 5692 5697 5702 5707 5711 5716 5719 5723 5726 5729 5732 5735 5739 5742 5744 5746 5749 5750 5753 5756 5760 5764 5766 5767 5770 5774 5777 5777 5778 5779 5781 5783 5784 5784 5785 5787 5790 5792 5793 5792 5791 5792 5794 5795 5797 5797
5623 5621 5619 5618 5617 5615 5611 5608 5606 5605 5603 5601 5600 5600 5599 5599 5600 5602 5605 5610 5614 5618 5622 5626 5628 5631 5634 5639 5643 5647 5652 5658 5662 5666 5670 5673 5675 5678 5681 5684 5689 5694 5700 5704 5709 5713 5716 5719 5722 5724 5727 5731 5735 5738 5740 5742 5744 5747 5750 5753 5757 5760 5762 5764 5768 5771 5773 5774 5775 5776 5777 5778 5777 5778 5780 5783 5786 5786 5785 5786 5788 5789 5789 5790 5792
5619 5617 5616 5614 5612 5610 5606 5604 5602 5600 5598 5597 5596 5594 5593 5593 5594 5595 5598 5602 5606 5610 5614 5617 5620 5623 5628 5632 5636 5640 5644 5649 5654 5658 5662 5665 5668 5672 5676 5679 5681 5686 5692 5696 5701 5706 5710 5713 5715 5717 5720 5724 5728 5731 5733 5735 5738 5741 5744 5747 5750 5753 5756 5758 5761 5765 5768 5770 5770 5771 5772 5772 5772 5771 5772 5775 5778 5778 5779 5782 5784 5783 5784 5785 5787
5616 5614 5612 5610 5607 5605 5603 5601 5600 5597 5595 5593 5592 5591 5590 5590 5590 5591 5594 5597 5599 5602 5605 5608 5611 5616 5621 5625 5629 5633 5637 5640 5644 5649 5653 5657 5661 5666 5670 5673 5676 5680 5685 5689 5692 5697 5701 5705 5707 5709 5713 5717 5720 5723 5726 5728 5731 5735 5738 5740 5743 5747 5750 5753 5755 5758 5761 5763 5765 5766 5766 5767 5767 5765 5766 5768 5771 5771 5774 5777 5777 5777 5779 5781 5781
5613 5610 5608 5606 5604 5602 5600 5599 5597 5595 5593 5591 5590 5590 5589 5589 5589 5590 5592 5594 5597 5599 5601 5604 5606 5609 5613 5617 5622 5627 5631 5634 5637 5642 5647 5651 5656 5662 5664 5666 5670 5675 5678 5681 5684 5688 5692 5696 5699 5702 5705 5709 5713 5716 5718 5722 5725 5729 5731 5734 5737 5741 5744 5746 5749 5752 5755 5757 5759 5760 5761 5762 5761 5760 5760 5762 5764 5766 5768 5770 5771 5773 5775 5776 5776
5610 5607 5605 5604 5602 5601 5599 5597 5595 5594 5592 5590 5588 5588 5588 5588 5589 5590 5592 5594 5596 5598 5600 5602 5604 5606 5608 5611 5615 5619 5624 5628 5632 5636 5640 5644 5649 5654 5657 5660 5665 5669 5671 5673 5676 5679 5683 5686 5690 5693 5697 5701 5705 5708 5710 5715 5719 5721 5725 5729 5732 5736 5738 5739 5742 5746 5748 5751 5753 5753 5754 5755 5755 5755 5755 5755 5757 5760 5763 5764 5765 5767 5769 5770 5770
5608 5605 5604 5602 5601 5599 5598 5596 5594 5592 5591 5589 5588 5587 5587 5587 5588 5588 5590 5593 5596 5597 5599 5600 5602 5603 5604 5607 5610 5613 5617 5622 5625 5629 5634 5638 5642 5646 5649 5654 5660 5664 5665 5666 5668 5671 5674 5678 5681 5684 5688 5693 5697 5700 5703 5707 5711 5714 5719 5723 5727 5729 5731 5733 5736 5739 5741 5743 5745 5746 5747 5747 5748 5749 5751 5751 5752 5754 5756 5758 5759 5761 5763 5764 5764
5606 5604 5602 5601 5600 5598 5597 5595 5594 5592 5591 5589 5588 5587 5587 5587 5587 5586 5588 5590 5593 5594 5596 5598 5599 5600 5601 5603 5606 5609 5612 5617 5620 5624 5628 5633 5637 5640 5644 5649 5653 5656 5658 5659 5661 5664 5666 5669 5672 5676 5681 5686 5690 5693 5696 5700 5704 5708 5713 5717 5720 5722 5724 5727 5729 5732 5734 5736 5738 5739 5740 5741 5741 5742 5744 5746 5748 5750 5751 5751 5753 5754 5755 5756 5757
5604 5603 5601 5600 5599 5597 5596 5595 5594 5592 5591 5590 5589 5588 5587 5587 5586 5586 5586 5586 5587 5590 5592 5594 5596 5597 5598 5600 5603 5605 5609 5613 5616 5619 5624 5627 5631 5636 5641 5645 5647 5649 5651 5654 5658 5660 5661 5662 5666 5671 5676 5681 5684 5688 5691 5694 5698 5703 5706 5710 5713 5715 5717 5720 5723 5726 5727 5729 5730 5731 5733 5735 5736 5736 5737 5738 5741 5744 5744 5744 5744 5746 5748 5750 5751
5603 5601 5600 5599 5597 5596 5595 5594 5593 5592 5591 5590 5589 5588 5588 5587 5586 5585 5585 5585 5585 5586 5588 5590 5593 5594 5596 5598 5600 5603 5607 5609 5612 5616 5620 5624 5627 5632 5637 5641 5643 5644 5646 5648 5652 5655 5657 5659 5662 5666 5670 5673 5676 5680 5683 5687 5692 5696 5699 5702 5706 5708 5711 5714 5717 5718 5719 5721 5722 5724 5727 5729 5729 5729 5730 5731 5731 5733 5735 5735 5736 5738 5740 5743 5744
5602 5600 5599 5598 5596 5595 5594 5593 5592 5592 5591 5590 5589 5588 5587 5586 5585 5584 5584 5584 5585 5586 5586 5587 5589 5591 5593 5595 5598 5601 5604 5607 5609 5613 5617 5620 5624 5627 5632 5635 5638 5640 5642 5645 5648 5652 5654 5655 5656 5659 5661 5663 5665 5669 5673 5677 5683 5688 5692 5696 5700 5703 5705 5706 5707 5708 5710 5714 5716 5718 5720 5721 5721 5721 5723 5725 5725 5726 5727 5728 5729 5731 5734 5736 5737
5600 5599 5598 5596 5595 5594 5593 5592 5591 5590 5590 5589 5587 5587 5586 5585 5584 5584 5584 5584 5584 5585 5586 5587 5588 5589 5591 5593 5596 5599 5601 5604 5607 5610 5614 5617 5620 5623 5626 5630 5634 5636 5638 5641 5643 5645 5646 5646 5648 5650 5653 5655 5658 5661 5665 5670 5675 5680 5683 5688 5692 5695 5696 5698 5698 5700 5703 5706 5708 5710 5711 5712 5713 5713 5715 5718 5721 5723 5724 5725 5724 5725 5727 5727 5727
5599 5597 5596 5595 5594 5593 5592 5591 5589 5588 5587 5587 5586 5585 5585 5584 5584 5583 5583 5583 5583 5584 5585 5586 5587 5588 5589 5591 5594 5596 5598 5600 5603 5606 5610 5613 5616 5618 5622 5625 5629 5632 5634 5635 5637 5637 5638 5639 5641 5643 5647 5650 5653 5656 5659 5664 5669 5672 5675 5679 5682 5684 5687 5689 5691 5693 5695 5697 5699 5701 5703 5705 5706 5706 5707 5709 5712 5715 5717 5718 5717 5718 5719 5718 5717
5597 5596 5595 5594 5593 5592 5591 5589 5588 5586 5585 5585 5584 5583 5583 5583 5583 5583 5583 5583 5583 5583 5584 5584 5585 5586 5587 5589 5591 5593 5594 5596 5598 5601 5604 5608 5611 5613 5616 5620 5624 5626 5628 5629 5630 5631 5632 5634 5635 5637 5641 5645 5647 5650 5653 5657 5661 5664 5667 5671 5674 5677 5680 5682 5683 5685 5687 5690 5692 5693 5695 5696 5698 5700 5701 5702 5704 5707 5710 5710 5711 5712 5713 5711 5711
5596 5595 5594 5593 5592 5591 5590 5588 5587 5585 5584 5583 5583 5582 5582 5582 5582 5582 5582 5581 5581 5581 5581 5582 5582 5583 5584 5585 5587 5588 5589 5591 5593 5595 5598 5602 5605 5607 5610 5614 5617 5619 5620 5621 5623 5624 5626 5628 5630 5631 5633 5636 5639 5641 5645 5648 5652 5655 5659 5662 5666 5669 5672 5674 5676 5678 5681 5683 5685 5686 5687 5689 5691 5692 5693 5694 5696 5700 5703 5704 5704 5704 5704 5703 5703
5595 5594 5593 5592 5591 5590 5589 5587 5586 5585 5584 5583 5582 5581 5581 5581 5580 5580 5579 5579 5580 5580 5579 5579 5580 5580 5581 5581 5582 5584 5585 5586 5588 5590 5593 5596 5599 5602 5604 5607 5609 5611 5613 5615 5618 5619 5621 5623 5624 5625 5627 5629 5631 5634 5637 5640 5644 5647 5649 5653 5656 5659 5662 5665 5668 5670 5672 5675 5677 5678 5679 5681 5684 5686 5686 5687 5689 5693 5696 5696 5695 5695 5696 5696 5695
5594 5593 5592 5591 5590 5589 5587 5586 5585 5584 5583 5582 5581 5581 5580 5580 5580 5579 5578 5578 5578 5577 5577 5577 5577 5577 5578 5577 5577 5579 5580 5582 5583 5585 5587 5590 5593 5596 5598 5600 5602 5605 5607 5609 5612 5614 5615 5617 5619 5621 5623 5625 5627 5629 5632 5634 5637 5639 5642 5644 5647 5649 5652 5655 5659 5661 5664 5667 5670 5672 5672 5674 5676 5678 5680 5681 5683 5686 5688 5689 5688 5687 5688 5689 5688
5594 5593 5591 5590 5589 5588 5587 5586 5584 5583 5582 5581 5581 5580 5579 5579 5579 5578 5578 5577 5576 5575 5575 5575 5574 5574 5574 5574 5574 5574 5576 5577 5579 5581 5582 5584 5587 5590 5592 5594 5596 5598 5601 5603 5606 5608 5610 5612 5613 5616 5618 5620 5622 5624 5626 5628 5631 5634 5635 5637 5639 5641 5643 5646 5649 5652 5656 5659 5662 5664 5666 5667 5669 5671 5673 5674 5676 5677 5680 5681 5680 5679 5681 5682 5681
5593 5592 5591 5589 5588 5587 5586 5585 5584 5582 5581 5580 5579 5578 5578 5577 5576 5576 5576 5575 5575 5574 5573 5572 5571 5571 5570 5571 5571 5571 5572 5573 5574 5575 5577 5579 5582 5584 5586 5588 5590 5593 5595 5598 5600 5603 5605 5607 5608 5609 5611 5613 5614 5616 5618 5621 5624 5626 5628 5630 5632 5633 5635 5637 5640 5644 5648 5651 5653 5656 5658 5660 5661 5663 5665 5666 5667 5669 5671 5672 5671 5671 5673 5675 5675
5593 5592 5591 5589 5588 5587 5585 5584 5583 5582 5581 5579 5578 5577 5576 5575 5574 5574 5573 5573 5573 5572 5571 5570 5569 5568 5567 5567 5568 5568 5568 5568 5569 5570 5572 5574 5577 5579 5582 5584 5586 5587 5590 5593 5595 5597 5599 5600 5601 5602 5603 5605 5606 5608 5610 5611 5614 5616 5619 5622 5624 5626 5628 5630 5632 5635 5639 5641 5644 5648 5650 5651 5653 5655 5656 5657 5658 5661 5663 5665 5665 5665 5666 5668 5668
5593 5592 5591 5589 5588 5587 5585 5584 5583 5581 5580 5579 5578 5576 5575 5574 5573 5572 5572 5571 5571 5570 5570 5569 5568 5566 5565 5565 5565 5565 5565 5565 5565 5566 5567 5569 5572 5574 5576 5579 5581 5582 5584 5586 5588 5589 5591 5593 5595 5596 5598 5599 5600 5601 5602 5604 5606 5608 5610 5613 5616 5618 5620 5622 5624 5627 5630 5633 5636 5639 5641 5643 5645 5647 5647 5649 5650 5652 5655 5657 5658 5658 5658 5659 5661
5593 5592 5590 5589 5588 5586 5585 5584 5583 5581 5580 5578 5577 5576 5575 5574 5573 5572 5571 5570 5569 5569 5568 5568 5567 5566 5565 5564 5563 5563 5563 5563 5564 5564 5565 5566 5568 5569 5571 5573 5576 5577 5579 5580 5581 5583 5585 5587 5587 5589 5591 5593 5594 5595 5597 5598 5600 5602 5604 5606 5608 5609 5611 5613 5616 5618 5621 5624 5627 5630 5632 5634 5636 5638 5639 5641 5642 5644 5646 5648 5649 5650 5650 5651 5653
5592 5591 5590 5589 5587 5586 5585 5583 5582 5581 5579 5578 5577 5576 5574 5573 5572 5571 5570 5569 5568 5567 5566 5566 5565 5565 5564 5563 5563 5562 5562 5562 5562 5563 5564 5565 5565 5566 5567 5568 5570 5572 5574 5575 5575 5577 5579 5580 5581 5582 5583 5585 5587 5589 5591 5592 5594 5596 5598 5600 5601 5603 5604 5605 5607 5610 5612 5615 5618 5620 5622 5625 5627 5629 5630 5632 5634 5635 5637 5639 5640 5641 5642 5642 5644
5590 5589 5588 5587 5586 5585 5584 5583 5581 5580 5579 5577 5576 5575 5574 5573 5571 5570 5569 5568 5567 5566 5565 5564 5564 5563 5563 5562 5562 5561 5561 5561 5561 5561 5562 5562 5563 5563 5564 5565 5565 5566 5568 5569 5570 5571 5573 5574 5575 5575 5576 5578 5580 5582 5584 5586 5588 5590 5591 5593 5594 5596 5597 5598 5600 5602 5605 5607 5609 5611 5613 5615 5618 5619 5621 5623 5625 5626 5628 5629 5630 5631 5632 5633 5634
5589 5587 5586 5585 5584 5583 5582 5581 5580 5579 5577 5576 5575 5574 5573 5572 5571 5569 5568 5567 5566 5565 5564 5563 5562 5561 5561 5560 5560 5560 5559 5559 5559 5558 5558 5558 5559 5559 5560 5561 5561 5561 5562 5563 5564 5565 5566 5567 5569 5570 5570 5571 5573 5575 5577 5579 5581 5583 5585 5586 5587 5588 5590 5591 5593 5595 5597 5599 5600 5602 5604 5606 5608 5610 5612 5614 5615 5617 5618 5620 5621 5622 5623 5624 5625
5587 5586 5585 5583 5582 5581 5580 5579 5578 5577 5575 5574 5573 5572 5571 5570 5569 5568 5567 5566 5565 5564 5562 5561 5560 5559 5559 5558 5557 5557 5557 5556 5556 5556 5555 5555 5555 5555 5555 5556 5556 5557 5557 5558 5558 5559 5560 5561 5562 5564 5565 5566 5567 5569 5570 5571 5573 5575 5577 5578 5579 5581 5582 5583 5585 5587 5588 5590 5592 5594 5595 5597 5599 5600 5603 5604 5606 5607 5609 5611 5612 5613 5614 5615 5616
5584 5583 5582 5581 5580 5579 5578 5576 5575 5574 5573 5572 5571 5570 5569 5568 5567 5566 5565 5564 5563 5562 5561 5560 5559 5558 5557 5556 5555 5554 5554 5553 5553 5552 5552 5552 5552 5551 5551 5552 5552 5552 5552 5552 5553 5554 5555 5555 5556 5557 5558 5559 5561 5562 5562 5563 5566 5568 5569 5570 5572 5572 5573 5575 5577 5578 5580 5582 5583 5584 5586 5588 5589 5591 5593 5595 5596 5598 5600 5601 5602 5603 5604 5606 5607
5581 5580 5579 5578 5578 5576 5575 5574 5573 5572 5571 5570 5569 5568 5567 5566 5565 5564 5562 5561 5561 5560 5559 5558 5557 5556 5555 5554 5553 5552 5551 5550 5550 5549 5548 5548 5548 5548 5548 5548 5548 5548 5548 5548 5548 5548 5549 5549 5550 5550 5551 5552 5553 5554 5554 5556 5558 5560 5561 5562 5563 5563 5563 5565 5567 5569 5571 5573 5574 5575 5576 5578 5580 5581 5583 5584 5586 5589 5590 5592 5592 5593 5595 5597 5597
5578 5577 5576 5576 5575 5574 5573 5572 5571 5570 5569 5567 5566 5565 5564 5563 5562 5561 5560 5559 5558 5557 5556 5555 5555 5554 5553 5552 5551 5550 5549 5548 5547 5546 5545 5544 5544 5544 5544 5544 5543 5543 5544 5544 5544 5543 5543 5544 5545 5545 5544 5544 5545 5546 5547 5549 5551 5552 5552 5553 5554 5554 5555 5557 5559 5560 5562 5563 5565 5566 5567 5568 5570 5571 5573 5574 5576 5579 5581 5582 5582 5584 5585 5587 5587
5575 5574 5574 5573 5572 5571 5570 5569 5568 5567 5566 5565 5564 5563 5562 5561 5560 5558 5557 5556 5555 5554 5553 5552 5552 5551 5550 5549 5548 5547 5547 5546 5545 5544 5543 5542 5541 5540 5540 5540 5539 5539 5538 5538 5538 5538 5538 5538 5539 5539 5538 5538 5539 5540 5540 5541 5542 5544 5544 5545 5545 5546 5547 5549 5550 5551 5552 5554 5555 5556 5558 5559 5560 5561 5563 5564 5566 5569 5571 5572 5572 5574 5575 5576 5577
5573 5572 5571 5570 5568 5568 5567 5566 5565 5564 5563 5562 5561 5560 5559 5558 5557 5556 5555 5554 5552 5551 5550 5549 5548 5547 5547 5546 5545 5544 5543 5542 5541 5540 5540 5539 5538 5537 5536 5535 5535 5534 5533 5533 5532 5532 5532 5532 5532 5532 5532 5532 5532 5532 5533 5534 5535 5536 5537 5537 5538 5538 5539 5540 5541 5542 5543 5544 5545 5547 5548 5549 5550 5551 5553 5554 5556 5558 5560 5561 5562 5564 5565 5566 5567
5571 5569 5568 5567 5566 5565 5564 5563 5562 5561 5559 5558 5557 5556 5555 5554 5554 5553 5552 5551 5550 5548 5547 5546 5545 5544 5543 5542 5541 5540 5540 5539 5538 5536 5536 5535 5534 5533 5532 5531 5530 5530 5529 5528 5527 5527 5526 5526 5525 5525 5524 5525 5525 5525 5526 5526 5527 5528 5529 5530 5530 5531 5532 5532 5533 5533 5534 5535 5536 5537 5539 5540 5540 5541 5543 5544 5546 5547 5549 5550 5551 5552 5554 5555 5557
5568 5567 5566 5565 5564 5562 5561 5560 5559 5558 5556 5555 5554 5553 5552 5551 5550 5549 5548 5547 5546 5545 5544 5543 5541 5540 5539 5538 5537 5537 5536 5535 5534 5533 5532 5531 5530 5528 5527 5526 5526 5525 5524 5524 5523 5523 5522 5521 5520 5519 5519 5518 5518 5518 5518 5519 5519 5520 5521 5522 5522 5523 5524 5524 5524 5525 5525 5526 5527 5528 5529 5530 5530 5531 5533 5534 5535 5537 5538 5539 5540 5541 5543 5545 5546
5565 5564 5563 5562 5561 5560 5558 5557 5556 5554 5553 5552 5551 5550 5548 5547 5546 5545 5544 5543 5542 5541 5540 5539 5538 5536 5535 5534 5533 5532 5531 5531 5530 5529 5528 5527 5526 5525 5524 5522 5521 5520 5519 5519 5519 5518 5518 5517 5516 5515 5514 5514 5513 5513 5512 5512 5513 5513 5514 5514 5515 5515 5516 5516 5517 5517 5517 5517 5518 5519 5519 5520 5520 5521 5522 5523 5525 5526 5527 5528 5530 5531 5532 5534 5536
5562 5561 5560 5559 5557 5556 5555 5554 5552 5551 5550 5548 5547 5546 5544 5543 5542 5541 5540 5538 5537 5536 5535 5534 5533 5532 5531 5530 5529 5528 5527 5526 5525 5524 5523 5522 5521 5520 5519 5518 5517 5516 5515 5514 5513 5513 5512 5512 5511 5511 5510 5509 5509 5508 5508 5507 5507 5507 5507 5507 5507 5508 5508 5508 5509 5509 5509 5509 5509 5510 5510 5510 5511 5512 5513 5514 5515 5516 5517 5518 5519 5520 5522 5523 5524
5559 5557 5556 5555 5554 5552 5551 5550 5548 5547 5546 5544 5543 5542 5540 5539 5537 5536 5535 5534 5533 5532 5531 5530 5528 5527 5526 5525 5524 5523 5522 5521 5519 5518 5518 5517 5516 5515 5514 5514 5513 5512 5511 5510 5509 5507 5506 5506 5505 5505 5505 5505 5504 5503 5503 5502 5501 5501 5500 5500 5500 5500 5500 5500 5501 5501 5501 5501 5501 5501 5502 5502 5502 5503 5504 5505 5505 5506 5507 5509 5510 5511 5512 5512 5513